Regional Weather Roundup
Issued by NWS Charleston, SC

Current Version | Previous Version | Text Only | Print | Product List | Glossary Off
Versions: 1 2 3 4 5 6 7 8 9 10 11 12 13 14 15 16 17 18 19 20 21 22 23 24 25 26 27 28 29 30 31 32 33 34 35 36 37 38 39 40 41 42 43 44 45 46 47 48 49 50

000
ASUS42 KCHS 051112
RWRCHS

REGIONAL WEATHER ROUNDUP
NATIONAL WEATHER SERVICE CHARLESTON SC
600 AM EST MON DEC 05 2016

NOTE: "FAIR" INDICATES FEW OR NO CLOUDS BELOW 12,000 FEET WITH NO
SIGNIFICANT WEATHER AND/OR OBSTRUCTIONS TO VISIBILITY.

NOT ALL STATIONS ARE QUALITY CONTROLLED. USE DATA WITH CAUTION...
ESPECIALLY DEWPOINT OBSERVATIONS.

SCZ027-030-031-034>040-042>050-051200-
...SOUTHEAST SOUTH CAROLINA...

CITY           SKY/WX    TMP DP  RH WIND       PRES   REMARKS
N CHARLESTON   CLOUDY    57  55  93 N5        29.95F
WATERFRONT PRK   N/A     67  66  96 SW8       29.94S
MOUNT PLEASANT NOT AVBL
JOHNS ISLAND   LGT RAIN  68  66  94 SW8G14    29.96S
PINOPOLIS        N/A     52  50  93 VRB3      29.89F
MONCKS CORNER  CLOUDY    50  48  93 CALM      29.96F
SUMMERVILLE    CLOUDY    50  50 100 CALM      29.97F
BEAUFORT MCAS  LGT RAIN  58  57  97 CALM      29.96F FOG
BEAUFORT ARPT  DRIZZLE   61  61 100 NW5       29.96F
HILTON HEAD IS NOT AVBL
WALTERBORO     RAIN      52 N/A N/A CALM      29.97F
ALLENDALE      CLOUDY    48  48 100 NW7       29.98R

...SOUTHERN MIDLANDS AND PEE DEE...

CITY           SKY/WX    TMP DP  RH WIND       PRES   REMARKS
GEORGETOWN     NOT AVBL
KINGSTREE      LGT RAIN  46  45  93 CALM      29.98R
ORANGEBURG     LGT RAIN  46  45  96 N10G20    30.02R
BARNWELL       NOT AVBL
AIKEN          CLOUDY    43  41  93 NE5       30.01F
MANNING        NOT AVBL
COLUMBIA       LGT RAIN  46  43  89 E5        29.98F
SUMTER         CLOUDY    45  43  93 N8        29.99R
FLORENCE       CLOUDY    45  44  97 N8        30.00R
MYRTLE BEACH   RAIN      54  48  82 NW9       29.97F
N MYRTLE BEACH LGT RAIN  53  53 100 VRB6      29.95S

$$

GAZ063-065-086>088-099>101-113>116-118-119-134>141-150-051200-
...SOUTHEAST GEORGIA...

CITY           SKY/WX    TMP DP  RH WIND       PRES   REMARKS
SAVANNAH ARPT  LGT RAIN  63  60  90 CALM      29.97F
HUNTER AAF     LGT RAIN  66  66 100 S2        29.94F
FORT STEWART   HVY RAIN  64  63  94 CALM      29.94F FOG
STATESBORO     CLOUDY    53  53 100 N7        29.95S
SYLVANIA       CLOUDY   N/A N/A N/A CALM      29.97R
CLAXTON        LGT RAIN N/A N/A N/A CALM      29.92F

...CSRA...CENTRAL AND FAR SOUTHEAST GEORGIA...

CITY           SKY/WX    TMP DP  RH WIND       PRES   REMARKS
THOMSON        CLOUDY    46  46 100 CALM      30.04S
AUGUSTA-BUSH   CLOUDY    48  44  86 N8        29.98F
AUGUSTA-DANIEL CLOUDY    46  42  86 N7        29.98F
SWAINSBORO     CLOUDY    48  46  93 N5        29.97F FOG
VIDALIA        CLOUDY    54  54 100 N3        29.94S
EASTMAN        CLOUDY    51  51  99 N3        29.98S
HAZLEHURST     CLOUDY    62  62 100 CALM      29.92S
ALMA           LGT RAIN  65  64  97 SE10      29.92F
WAYCROSS       RAIN      67  67 100 S12G18    29.95F
JESUP          DRIZZLE   66  66 100 S3        29.96S
BAXLEY         CLOUDY    64  64 100 SE5       29.93F
BRUNSWICK      CLOUDY    70  68  94 S7        29.98F
SAINT SIMONS   MOCLDY    69  65  86 S6        29.98R

$$

SCZ027-028-034-036>038-045-046-048>050-GAZ119-141-051200-
...LAKE AND SUPPLEMENTAL COASTAL OBSERVATIONS...

STATION/POSITION TIME  TEMP    WIND        PRES    WAVE   SWELL
                       AIR SEA DIR/SP/G            HT/PER HT/PER/DIR
                 (UTC) (F)     (DEG/KT/KT) (MB)    (FT/S) (FT/S/D)
WINYAH BAY       0945   58     310/ 10     1014.0
LAKE MURRAY      1020   44      60/  2/  5 1015.2
ACE BASIN NERRS  0945   67     240/  2     1014.0
FORT PULASKI     1048   66 62  220/  3/  5 1015.0S
SAPELO ISLAND    1000   67     200/  4     1015.0

$$

ANZ835-935-AMZ111-154-330-350-352-354-370-450-454-472-051200-
...C-MAN AND BUOY OBSERVATIONS...

STATION/POSITION TIME  TEMP    WIND        PRES    WAVE   SWELL
                       AIR SEA DIR/SP/G            HT/PER HT/PER/DIR
                 (UTC) (F)     (DEG/KT/KT) (MB)    (FT/S) (FT/S/D)
BUOY 41004       1050   75 74  220/ 21/ 25 1013.8R   7/ 7
BUOY 41008       1050   67 65  190/ 12/ 14 1015.0R   4/ 7   3/ 80/ 7
FOLLY BEACH CMAN 1000   65     230/ 10/ 14 1014.9F
CAPERS NEARSHORE 1008   63 62  250/ 10/ 14 1014.1F
FRIPP NEARSHORE  1008   65 61  230/ 12/ 17 1014.4F


STATION/POSITION TIME  TEMP    WIND        PRES    WAVE   SWELL
                       AIR SEA DIR/SP/G            HT/PER HT/PER/DIR
                 (UTC) (F)     (DEG/KT/KT) (MB)    (FT/S) (FT/S/D)
5E ST. MARYS GA  1100      65                N/A     3/ 5
FRYING PAN BUOY  1050   74 74  200/ 23/ 29 1013.0F   8/ 7   2/180/11
BUOY 41025       1050   69 74  210/ 23/ 27 1013.2F   5/ 5   2/ 70/ 8
CAPE LOOKOUT NC  1000   64     210/  8/ 10 1013.0F
BUOY 41002       1050   71 73  200/ 17/ 21 1017.9R   4/ 9   3/350/ 9
BUOY 41010       NOT AVBL
ST AUGUSTINE FL  1100   68 68  190/  8/  9 1016.3F


$$



USA.gov is the U.S. government's official web portal to all federal, state and local government web resources and services.